Terminal Aerodrome Forecast
Issued by NWS

Home | Current Version | Previous Version | Text Only | Print | Product List | Glossary On
Versions: 1 2 3 4 5 6 7 8 9 10 11 12 13 14 15 16 17 18 19 20
559
FTPA31 PHFO 081004 AAB
TAFHLI
TAF AMD
PHLI 081004Z 0810/0906 28006KT P6SM SCT015 SCT025 BKN035
      TEMPO 0810/0812 BKN015
     FM081200 28005KT P6SM VCSH SCT015 BKN025
     FM081800 16008KT 6SM -SHRA BR SCT015 BKN025 OVC050
     FM090500 22005KT P6SM VCSH SCT015 BKN035 OVC050=

USA.gov is the U.S. government's official web portal to all federal, state and local government web resources and services.